Time,TemperatureF,DewpointF,PressureIn,WindDirection,WindDirectionDegrees,WindSpeedMPH,WindSpeedGustMPH,Humidity,HourlyPrecipIn,Conditions,Clouds,dailyrainin,SoftwareType,DateUTC
2013-01-27 00:00:00,27.7,26.5,30.12,SSE,165,0.0,0.0,95,0.00,,---,0.00,VWS V14.00,2013-01-27 05:00:00,
2013-01-27 00:01:00,27.7,26.5,30.12,SSE,156,0.0,0.0,95,0.00,,---,0.00,VWS V14.00,2013-01-27 05:01:00,
2013-01-27 00:04:00,27.7,26.7,30.12,SSE,156,0.0,0.0,96,0.00,,---,0.00,VWS V14.00,2013-01-27 05:04:00,
2013-01-27 00:07:00,27.7,26.7,30.12,SSE,157,0.0,0.0,96,0.00,,---,0.00,VWS V14.00,2013-01-27 05:07:00,
2013-01-27 00:10:00,27.6,26.6,30.12,SSE,156,0.0,0.0,96,0.00,,---,0.00,VWS V14.00,2013-01-27 05:10:00,
2013-01-27 00:13:00,27.6,26.6,30.12,SSE,156,0.0,0.0,96,0.00,,---,0.00,VWS V14.00,2013-01-27 05:13:00,
2013-01-27 00:16:00,27.5,26.5,30.12,SSE,157,0.0,0.0,96,0.00,,---,0.00,VWS V14.00,2013-01-27 05:16:00,
2013-01-27 00:19:00,27.5,26.5,30.12,SSE,156,0.0,0.0,96,0.00,,---,0.00,VWS V14.00,2013-01-27 05:19:00,
2013-01-27 00:22:00,27.5,26.5,30.13,SSE,156,0.0,0.0,96,0.00,,---,0.00,VWS V14.00,2013-01-27 05:22:00,
2013-01-27 00:25:00,27.4,26.4,30.13,SSE,156,0.0,0.0,96,0.00,,---,0.00,VWS V14.00,2013-01-27 05:25:00,
2013-01-27 00:29:00,27.4,26.4,30.13,SSE,156,0.0,0.0,96,0.00,,---,0.00,VWS V14.00,2013-01-27 05:29:00,
2013-01-27 00:30:00,27.4,26.4,30.13,SSE,156,0.0,0.0,96,0.00,,---,0.00,VWS V14.00,2013-01-27 05:30:00,
2013-01-27 00:32:00,27.3,26.3,30.13,SSE,156,0.0,0.0,96,0.00,,---,0.00,VWS V14.00,2013-01-27 05:32:00,
2013-01-27 00:35:00,27.3,26.3,30.13,SSE,156,0.0,0.0,96,0.00,,---,0.00,VWS V14.00,2013-01-27 05:35:00,
2013-01-27 00:38:00,27.2,26.2,30.13,SSE,156,0.0,0.0,96,0.00,,---,0.00,VWS V14.00,2013-01-27 05:38:00,
2013-01-27 00:41:00,27.2,26.2,30.13,West,266,0.0,0.0,96,0.00,,---,0.00,VWS V14.00,2013-01-27 05:41:00,
2013-01-27 00:44:00,27.2,26.2,30.13,West,271,0.0,0.0,96,0.00,,---,0.00,VWS V14.00,2013-01-27 05:44:00,
2013-01-27 00:47:00,27.2,26.2,30.13,SSE,148,1.0,1.0,96,0.00,,---,0.00,VWS V14.00,2013-01-27 05:47:00,
2013-01-27 00:50:00,27.1,26.1,30.14,SSE,148,1.0,2.0,96,0.00,,---,0.00,VWS V14.00,2013-01-27 05:50:00,
2013-01-27 00:53:00,26.9,25.9,30.14,SSE,162,1.0,2.0,96,0.00,,---,0.00,VWS V14.00,2013-01-27 05:53:00,
2013-01-27 00:56:00,26.8,25.8,30.14,SE,146,2.0,2.0,96,0.00,,---,0.00,VWS V14.00,2013-01-27 05:56:00,
2013-01-27 00:59:00,26.9,25.9,30.14,SSE,148,0.0,2.0,96,0.00,,---,0.00,VWS V14.00,2013-01-27 05:59:00,
2013-01-27 01:00:00,27.0,26.0,30.14,SSE,148,0.0,2.0,96,0.00,,---,0.00,VWS V14.00,2013-01-27 06:00:00,
2013-01-27 01:02:00,27.0,26.0,30.14,SSE,148,0.0,0.0,96,0.00,,---,0.00,VWS V14.00,2013-01-27 06:02:00,
2013-01-27 01:05:00,26.9,25.9,30.14,SSE,148,0.0,0.0,96,0.00,,---,0.00,VWS V14.00,2013-01-27 06:05:00,
2013-01-27 01:08:00,26.8,25.8,30.14,SSE,148,0.0,0.0,96,0.00,,---,0.00,VWS V14.00,2013-01-27 06:08:00,
2013-01-27 01:11:00,26.8,25.8,30.14,SSE,148,0.0,0.0,96,0.00,,---,0.00,VWS V14.00,2013-01-27 06:11:00,
2013-01-27 01:14:00,26.7,25.7,30.14,SSE,148,0.0,0.0,96,0.00,,---,0.00,VWS V14.00,2013-01-27 06:14:00,
2013-01-27 01:17:00,26.6,25.6,30.14,SSE,148,0.0,0.0,96,0.00,,---,0.00,VWS V14.00,2013-01-27 06:17:00,
2013-01-27 01:20:00,26.5,25.5,30.14,SSE,148,0.0,0.0,96,0.00,,---,0.00,VWS V14.00,2013-01-27 06:20:00,
2013-01-27 01:23:00,26.6,25.6,30.14,SSE,148,0.0,0.0,96,0.00,,---,0.00,VWS V14.00,2013-01-27 06:23:00,
2013-01-27 01:26:00,26.5,25.5,30.14,SSE,148,0.0,0.0,96,0.00,,---,0.00,VWS V14.00,2013-01-27 06:26:00,
2013-01-27 01:29:00,26.5,25.5,30.14,SSE,148,0.0,0.0,96,0.00,,---,0.00,VWS V14.00,2013-01-27 06:29:00,
2013-01-27 01:30:00,26.4,25.4,30.14,SSE,148,0.0,0.0,96,0.00,,---,0.00,VWS V14.00,2013-01-27 06:30:00,
2013-01-27 01:32:00,26.3,25.3,30.14,SSE,148,0.0,0.0,96,0.00,,---,0.00,VWS V14.00,2013-01-27 06:32:00,
2013-01-27 01:35:00,26.3,25.3,30.14,SSE,148,0.0,0.0,96,0.00,,---,0.00,VWS V14.00,2013-01-27 06:35:00,
2013-01-27 01:38:00,26.2,25.5,30.15,SSE,148,0.0,0.0,97,0.00,,---,0.00,VWS V14.00,2013-01-27 06:38:00,
2013-01-27 01:41:00,26.1,25.1,30.14,SSE,148,0.0,0.0,96,0.00,,---,0.00,VWS V14.00,2013-01-27 06:41:00,
2013-01-27 01:44:00,26.1,25.4,30.15,SSE,148,0.0,0.0,97,0.00,,---,0.00,VWS V14.00,2013-01-27 06:44:00,
2013-01-27 01:50:00,26.1,25.4,30.15,SSE,148,0.0,0.0,97,0.00,,---,0.00,VWS V14.00,2013-01-27 06:50:00,
2013-01-27 01:53:00,26.2,25.5,30.15,SSE,148,0.0,0.0,97,0.00,,---,0.00,VWS V14.00,2013-01-27 06:53:00,
2013-01-27 01:56:00,26.1,25.4,30.15,SSE,148,0.0,0.0,97,0.00,,---,0.00,VWS V14.00,2013-01-27 06:56:00,
2013-01-27 01:59:00,26.1,25.4,30.15,SSE,148,0.0,0.0,97,0.00,,---,0.00,VWS V14.00,2013-01-27 06:59:00,
2013-01-27 02:00:00,26.1,25.4,30.15,SSE,148,0.0,0.0,97,0.00,,---,0.00,VWS V14.00,2013-01-27 07:00:00,
2013-01-27 02:02:00,26.1,25.4,30.16,SSE,148,0.0,0.0,97,0.00,,---,0.00,VWS V14.00,2013-01-27 07:02:00,
2013-01-27 02:05:00,26.0,25.3,30.15,SSE,148,0.0,0.0,97,0.00,,---,0.00,VWS V14.00,2013-01-27 07:05:00,
2013-01-27 02:08:00,26.0,25.3,30.16,SSE,148,0.0,0.0,97,0.00,,---,0.00,VWS V14.00,2013-01-27 07:08:00,
2013-01-27 02:11:00,25.9,25.2,30.16,SSE,148,0.0,0.0,97,0.00,,---,0.00,VWS V14.00,2013-01-27 07:11:00,
2013-01-27 02:14:00,25.9,25.2,30.16,SSE,148,0.0,0.0,97,0.00,,---,0.00,VWS V14.00,2013-01-27 07:14:00,
2013-01-27 02:17:00,26.0,25.3,30.16,SSE,148,0.0,0.0,97,0.00,,---,0.00,VWS V14.00,2013-01-27 07:17:00,
2013-01-27 02:20:00,26.1,25.4,30.16,SSE,148,0.0,0.0,97,0.00,,---,0.00,VWS V14.00,2013-01-27 07:20:00,
2013-01-27 02:23:00,26.2,25.5,30.16,SSE,148,0.0,0.0,97,0.00,,---,0.00,VWS V14.00,2013-01-27 07:23:00,
2013-01-27 02:26:00,26.1,25.4,30.15,SSE,148,0.0,0.0,97,0.00,,---,0.00,VWS V14.00,2013-01-27 07:26:00,
2013-01-27 02:29:00,26.1,25.4,30.16,SSE,148,0.0,0.0,97,0.00,,---,0.00,VWS V14.00,2013-01-27 07:29:00,
2013-01-27 02:30:00,26.0,25.3,30.16,SSE,148,0.0,0.0,97,0.00,,---,0.00,VWS V14.00,2013-01-27 07:30:00,
2013-01-27 02:32:00,26.0,25.3,30.16,SSE,148,0.0,0.0,97,0.00,,---,0.00,VWS V14.00,2013-01-27 07:32:00,
2013-01-27 02:35:00,25.9,25.2,30.15,SSE,148,0.0,0.0,97,0.00,,---,0.00,VWS V14.00,2013-01-27 07:35:00,
2013-01-27 02:38:00,25.9,25.2,30.16,SSE,148,0.0,0.0,97,0.00,,---,0.00,VWS V14.00,2013-01-27 07:38:00,
2013-01-27 02:41:00,26.0,25.3,30.16,SSE,148,0.0,0.0,97,0.00,,---,0.00,VWS V14.00,2013-01-27 07:41:00,
2013-01-27 02:44:00,25.9,25.2,30.16,SSE,167,0.0,0.0,97,0.00,,---,0.00,VWS V14.00,2013-01-27 07:44:00,
2013-01-27 02:47:00,25.8,25.1,30.17,SSE,167,0.0,0.0,97,0.00,,---,0.00,VWS V14.00,2013-01-27 07:47:00,
2013-01-27 02:50:00,25.8,25.1,30.17,SSE,167,0.0,0.0,97,0.00,,---,0.00,VWS V14.00,2013-01-27 07:50:00,
2013-01-27 02:53:00,25.8,25.1,30.17,SSE,167,0.0,0.0,97,0.00,,---,0.00,VWS V14.00,2013-01-27 07:53:00,
2013-01-27 02:56:00,25.8,25.1,30.17,SSE,167,0.0,0.0,97,0.00,,---,0.00,VWS V14.00,2013-01-27 07:56:00,
2013-01-27 02:59:00,25.9,25.2,30.17,SSE,167,0.0,0.0,97,0.00,,---,0.00,VWS V14.00,2013-01-27 07:59:00,
2013-01-27 03:00:00,25.9,25.2,30.17,SSE,167,0.0,0.0,97,0.00,,---,0.00,VWS V14.00,2013-01-27 08:00:00,
2013-01-27 03:02:00,26.0,25.3,30.17,SSE,167,0.0,0.0,97,0.00,,---,0.00,VWS V14.00,2013-01-27 08:02:00,
2013-01-27 03:05:00,26.1,25.4,30.17,SSE,167,0.0,0.0,97,0.00,,---,0.00,VWS V14.00,2013-01-27 08:05:00,
2013-01-27 03:08:00,26.0,25.3,30.17,SSE,167,0.0,0.0,97,0.00,,---,0.00,VWS V14.00,2013-01-27 08:08:00,
2013-01-27 03:11:00,25.8,25.1,30.17,SSE,167,0.0,0.0,97,0.00,,---,0.00,VWS V14.00,2013-01-27 08:11:00,
2013-01-27 03:14:00,25.7,25.0,30.17,SSE,168,0.0,0.0,97,0.00,,---,0.00,VWS V14.00,2013-01-27 08:14:00,
2013-01-27 03:17:00,25.6,24.9,30.17,SSE,167,0.0,0.0,97,0.00,,---,0.00,VWS V14.00,2013-01-27 08:17:00,
2013-01-27 03:20:00,25.6,24.9,30.17,SSE,167,0.0,0.0,97,0.00,,---,0.00,VWS V14.00,2013-01-27 08:20:00,
2013-01-27 03:23:00,25.6,24.9,30.17,SSE,167,0.0,0.0,97,0.00,,---,0.00,VWS V14.00,2013-01-27 08:23:00,
2013-01-27 03:26:00,25.6,24.9,30.17,SSE,167,0.0,0.0,97,0.00,,---,0.00,VWS V14.00,2013-01-27 08:26:00,
2013-01-27 03:29:00,25.6,24.9,30.17,SSE,167,0.0,0.0,97,0.00,,---,0.00,VWS V14.00,2013-01-27 08:29:00,
2013-01-27 03:30:00,25.6,24.9,30.17,SSE,167,0.0,0.0,97,0.00,,---,0.00,VWS V14.00,2013-01-27 08:30:00,
2013-01-27 03:32:00,25.5,24.8,30.17,SSE,167,0.0,0.0,97,0.00,,---,0.00,VWS V14.00,2013-01-27 08:32:00,
2013-01-27 03:35:00,25.6,24.9,30.17,SSE,167,0.0,0.0,97,0.00,,---,0.00,VWS V14.00,2013-01-27 08:35:00,
2013-01-27 03:38:00,25.6,24.9,30.17,SSE,167,0.0,0.0,97,0.00,,---,0.00,VWS V14.00,2013-01-27 08:38:00,
2013-01-27 03:41:00,25.6,24.9,30.17,SSE,167,0.0,0.0,97,0.00,,---,0.00,VWS V14.00,2013-01-27 08:41:00,
2013-01-27 03:44:00,25.5,24.8,30.17,West,266,0.0,0.0,97,0.00,,---,0.00,VWS V14.00,2013-01-27 08:44:00,
2013-01-27 03:47:00,25.4,24.7,30.18,West,266,0.0,0.0,97,0.00,,---,0.00,VWS V14.00,2013-01-27 08:47:00,
2013-01-27 03:50:00,25.4,24.7,30.17,West,266,0.0,0.0,97,0.00,,---,0.00,VWS V14.00,2013-01-27 08:50:00,
2013-01-27 03:53:00,25.4,24.7,30.17,West,267,0.0,0.0,97,0.00,,---,0.00,VWS V14.00,2013-01-27 08:53:00,
2013-01-27 03:56:00,25.3,24.6,30.18,West,267,0.0,0.0,97,0.00,,---,0.00,VWS V14.00,2013-01-27 08:56:00,
2013-01-27 03:59:00,25.3,24.6,30.18,West,267,0.0,0.0,97,0.00,,---,0.00,VWS V14.00,2013-01-27 08:59:00,
2013-01-27 04:00:00,25.3,24.6,30.18,West,267,0.0,0.0,97,0.00,,---,0.00,VWS V14.00,2013-01-27 09:00:00,
2013-01-27 04:02:00,25.3,24.6,30.18,West,267,0.0,0.0,97,0.00,,---,0.00,VWS V14.00,2013-01-27 09:02:00,
2013-01-27 04:05:00,25.5,24.8,30.18,West,267,0.0,0.0,97,0.00,,---,0.00,VWS V14.00,2013-01-27 09:05:00,
2013-01-27 04:08:00,24.5,23.5,30.17,West,267,0.0,0.0,96,0.00,,---,0.00,VWS V14.00,2013-01-27 09:08:00,
2013-01-27 04:11:00,24.5,23.5,30.17,West,267,0.0,0.0,96,0.00,,---,0.00,VWS V14.00,2013-01-27 09:11:00,
2013-01-27 04:14:00,24.5,23.5,30.18,West,267,0.0,0.0,96,0.00,,---,0.00,VWS V14.00,2013-01-27 09:14:00,
2013-01-27 04:17:00,24.5,23.5,30.18,West,267,0.0,0.0,96,0.00,,---,0.00,VWS V14.00,2013-01-27 09:17:00,
2013-01-27 04:20:00,24.5,23.5,30.18,West,267,0.0,0.0,96,0.00,,---,0.00,VWS V14.00,2013-01-27 09:20:00,
2013-01-27 04:23:00,24.5,23.5,30.18,West,267,0.0,0.0,96,0.00,,---,0.00,VWS V14.00,2013-01-27 09:23:00,
2013-01-27 04:26:00,24.5,23.5,30.18,West,267,0.0,0.0,96,0.00,,---,0.00,VWS V14.00,2013-01-27 09:26:00,
2013-01-27 04:29:00,24.5,23.5,30.18,West,267,0.0,0.0,96,0.00,,---,0.00,VWS V14.00,2013-01-27 09:29:00,
2013-01-27 04:30:00,24.5,23.5,30.18,West,267,0.0,0.0,96,0.00,,---,0.00,VWS V14.00,2013-01-27 09:30:00,
2013-01-27 04:32:00,24.5,23.5,30.18,West,267,0.0,0.0,96,0.00,,---,0.00,VWS V14.00,2013-01-27 09:32:00,
2013-01-27 04:35:00,24.5,23.5,30.18,West,267,0.0,0.0,96,0.00,,---,0.00,VWS V14.00,2013-01-27 09:35:00,
2013-01-27 04:38:00,24.5,23.5,30.18,West,267,0.0,0.0,96,0.00,,---,0.00,VWS V14.00,2013-01-27 09:38:00,
2013-01-27 04:41:00,24.5,23.5,30.18,West,267,0.0,0.0,96,0.00,,---,0.00,VWS V14.00,2013-01-27 09:41:00,
2013-01-27 04:44:00,24.5,23.5,30.18,West,267,0.0,0.0,96,0.00,,---,0.00,VWS V14.00,2013-01-27 09:44:00,
2013-01-27 04:47:00,24.5,23.5,30.18,West,267,0.0,0.0,96,0.00,,---,0.00,VWS V14.00,2013-01-27 09:47:00,
2013-01-27 05:00:00,24.5,23.5,30.18,West,267,0.0,0.0,96,0.00,,---,0.00,VWS V14.00,2013-01-27 10:00:00,
2013-01-27 05:02:00,24.5,23.5,30.18,West,267,0.0,0.0,96,0.00,,---,0.00,VWS V14.00,2013-01-27 10:02:00,
2013-01-27 05:05:00,24.5,23.5,30.18,West,267,0.0,0.0,96,0.00,,---,0.00,VWS V14.00,2013-01-27 10:05:00,
2013-01-27 05:08:00,24.5,23.5,30.18,West,267,0.0,0.0,96,0.00,,---,0.00,VWS V14.00,2013-01-27 10:08:00,
2013-01-27 05:11:00,24.5,23.5,30.18,West,267,0.0,0.0,96,0.00,,---,0.00,VWS V14.00,2013-01-27 10:11:00,
2013-01-27 05:14:00,24.5,23.5,30.18,West,267,0.0,0.0,96,0.00,,---,0.00,VWS V14.00,2013-01-27 10:14:00,
2013-01-27 05:15:00,24.5,23.5,30.18,West,267,0.0,0.0,96,0.00,,---,0.00,VWS V14.00,2013-01-27 10:15:00,
2013-01-27 05:17:00,24.5,23.5,30.18,West,267,0.0,0.0,96,0.00,,---,0.00,VWS V14.00,2013-01-27 10:17:00,
2013-01-27 05:20:00,24.5,23.5,30.18,West,267,0.0,0.0,96,0.00,,---,0.00,VWS V14.00,2013-01-27 10:20:00,
2013-01-27 05:21:00,24.5,23.5,30.18,West,267,0.0,0.0,96,0.00,,---,0.00,VWS V14.00,2013-01-27 10:21:00,
2013-01-27 05:23:00,24.5,23.5,30.19,West,267,0.0,0.0,96,0.00,,---,0.00,VWS V14.00,2013-01-27 10:23:00,
2013-01-27 05:26:00,24.5,23.5,30.18,West,267,0.0,0.0,96,0.00,,---,0.00,VWS V14.00,2013-01-27 10:26:00,
2013-01-27 05:30:00,24.5,23.5,30.19,West,267,0.0,0.0,96,0.00,,---,0.00,VWS V14.00,2013-01-27 10:30:00,
2013-01-27 05:33:00,24.5,23.5,30.19,West,267,0.0,0.0,96,0.00,,---,0.00,VWS V14.00,2013-01-27 10:33:00,
2013-01-27 05:36:00,24.5,23.5,30.19,West,267,0.0,0.0,96,0.00,,---,0.00,VWS V14.00,2013-01-27 10:36:00,
2013-01-27 05:39:00,24.5,23.5,30.19,West,267,0.0,0.0,96,0.00,,---,0.00,VWS V14.00,2013-01-27 10:39:00,
2013-01-27 05:42:00,24.5,23.5,30.20,West,267,0.0,0.0,96,0.00,,---,0.00,VWS V14.00,2013-01-27 10:42:00,
2013-01-27 05:45:00,24.5,23.5,30.20,West,267,0.0,0.0,96,0.00,,---,0.00,VWS V14.00,2013-01-27 10:45:00,
2013-01-27 05:48:00,24.5,23.5,30.20,West,267,0.0,0.0,96,0.00,,---,0.00,VWS V14.00,2013-01-27 10:48:00,
2013-01-27 05:51:00,24.5,23.5,30.20,West,267,0.0,0.0,96,0.00,,---,0.00,VWS V14.00,2013-01-27 10:51:00,
2013-01-27 05:54:00,24.5,23.5,30.19,West,267,0.0,0.0,96,0.00,,---,0.00,VWS V14.00,2013-01-27 10:54:00,
2013-01-27 05:57:00,24.5,23.5,30.20,West,267,0.0,0.0,96,0.00,,---,0.00,VWS V14.00,2013-01-27 10:57:00,
2013-01-27 06:00:00,24.5,23.5,30.20,West,267,0.0,0.0,96,0.00,,---,0.00,VWS V14.00,2013-01-27 11:00:00,
2013-01-27 06:03:00,24.5,23.5,30.21,West,267,0.0,0.0,96,0.00,,---,0.00,VWS V14.00,2013-01-27 11:03:00,
2013-01-27 06:06:00,24.5,23.5,30.21,West,267,0.0,0.0,96,0.00,,---,0.00,VWS V14.00,2013-01-27 11:06:00,
2013-01-27 06:09:00,24.5,23.5,30.21,West,267,0.0,0.0,96,0.00,,---,0.00,VWS V14.00,2013-01-27 11:09:00,
2013-01-27 06:12:00,24.5,23.5,30.21,West,267,0.0,0.0,96,0.00,,---,0.00,VWS V14.00,2013-01-27 11:12:00,
2013-01-27 06:15:00,24.5,23.5,30.22,West,267,0.0,0.0,96,0.00,,---,0.00,VWS V14.00,2013-01-27 11:15:00,
2013-01-27 06:18:00,24.5,23.5,30.22,West,267,0.0,0.0,96,0.00,,---,0.00,VWS V14.00,2013-01-27 11:18:00,
2013-01-27 06:21:00,24.5,23.5,30.22,West,267,0.0,0.0,96,0.00,,---,0.00,VWS V14.00,2013-01-27 11:21:00,
2013-01-27 06:24:00,24.5,23.5,30.22,West,267,0.0,0.0,96,0.00,,---,0.00,VWS V14.00,2013-01-27 11:24:00,
2013-01-27 06:27:00,24.5,23.5,30.22,West,267,0.0,0.0,96,0.00,,---,0.00,VWS V14.00,2013-01-27 11:27:00,
2013-01-27 06:30:00,24.5,23.5,30.22,West,267,0.0,0.0,96,0.00,,---,0.00,VWS V14.00,2013-01-27 11:30:00,
2013-01-27 06:33:00,24.5,23.5,30.23,West,267,0.0,0.0,96,0.00,,---,0.00,VWS V14.00,2013-01-27 11:33:00,
2013-01-27 06:36:00,24.5,23.5,30.23,West,267,0.0,0.0,96,0.00,,---,0.00,VWS V14.00,2013-01-27 11:36:00,
2013-01-27 06:39:00,24.5,23.5,30.23,West,267,0.0,0.0,96,0.00,,---,0.00,VWS V14.00,2013-01-27 11:39:00,
2013-01-27 06:42:00,24.5,23.5,30.23,West,267,0.0,0.0,96,0.00,,---,0.00,VWS V14.00,2013-01-27 11:42:00,
2013-01-27 06:45:00,24.5,23.5,30.23,West,267,0.0,0.0,96,0.00,,---,0.00,VWS V14.00,2013-01-27 11:45:00,
2013-01-27 06:48:00,24.5,23.5,30.23,West,267,0.0,0.0,96,0.00,,---,0.00,VWS V14.00,2013-01-27 11:48:00,
2013-01-27 06:51:00,24.5,23.5,30.23,West,267,0.0,0.0,96,0.00,,---,0.00,VWS V14.00,2013-01-27 11:51:00,
2013-01-27 06:54:00,24.5,23.5,30.23,West,267,0.0,0.0,96,0.00,,---,0.00,VWS V14.00,2013-01-27 11:54:00,
2013-01-27 06:57:00,24.5,23.5,30.23,West,267,0.0,0.0,96,0.00,,---,0.00,VWS V14.00,2013-01-27 11:57:00,
2013-01-27 07:00:00,24.5,23.5,30.23,West,267,0.0,0.0,96,0.00,,---,0.00,VWS V14.00,2013-01-27 12:00:00,
2013-01-27 07:03:00,24.5,23.5,30.24,West,267,0.0,0.0,96,0.00,,---,0.00,VWS V14.00,2013-01-27 12:03:00,
2013-01-27 07:06:00,24.5,23.5,30.24,West,267,0.0,0.0,96,0.00,,---,0.00,VWS V14.00,2013-01-27 12:06:00,
2013-01-27 07:09:00,24.5,23.5,30.24,West,267,0.0,0.0,96,0.00,,---,0.00,VWS V14.00,2013-01-27 12:09:00,
2013-01-27 07:12:00,24.5,23.5,30.24,West,267,0.0,0.0,96,0.00,,---,0.00,VWS V14.00,2013-01-27 12:12:00,
2013-01-27 07:15:00,24.5,23.5,30.24,West,267,0.0,0.0,96,0.00,,---,0.00,VWS V14.00,2013-01-27 12:15:00,
2013-01-27 07:18:00,24.5,23.5,30.24,West,267,0.0,0.0,96,0.00,,---,0.00,VWS V14.00,2013-01-27 12:18:00,
2013-01-27 07:21:00,24.5,23.5,30.25,West,267,0.0,0.0,96,0.00,,---,0.00,VWS V14.00,2013-01-27 12:21:00,
2013-01-27 07:24:00,24.5,23.5,30.25,West,267,0.0,0.0,96,0.00,,---,0.00,VWS V14.00,2013-01-27 12:24:00,
2013-01-27 07:27:00,24.5,23.5,30.25,West,267,0.0,0.0,96,0.00,,---,0.00,VWS V14.00,2013-01-27 12:27:00,
2013-01-27 07:30:00,24.5,23.5,30.25,West,267,0.0,0.0,96,0.00,,---,0.00,VWS V14.00,2013-01-27 12:30:00,
2013-01-27 07:33:00,24.5,23.5,30.25,West,267,0.0,0.0,96,0.00,,---,0.00,VWS V14.00,2013-01-27 12:33:00,
2013-01-27 07:36:00,24.5,23.5,30.25,West,267,0.0,0.0,96,0.00,,---,0.00,VWS V14.00,2013-01-27 12:36:00,
2013-01-27 07:39:00,24.5,23.5,30.25,West,267,0.0,0.0,96,0.00,,---,0.00,VWS V14.00,2013-01-27 12:39:00,
2013-01-27 07:42:00,24.5,23.5,30.25,West,267,0.0,0.0,96,0.00,,---,0.00,VWS V14.00,2013-01-27 12:42:00,
2013-01-27 07:45:00,24.5,23.5,30.25,West,267,0.0,0.0,96,0.00,,---,0.00,VWS V14.00,2013-01-27 12:45:00,
2013-01-27 07:48:00,24.5,23.5,30.25,West,267,0.0,0.0,96,0.00,,---,0.00,VWS V14.00,2013-01-27 12:48:00,
2013-01-27 07:51:00,24.5,23.5,30.25,West,267,0.0,0.0,96,0.00,,---,0.00,VWS V14.00,2013-01-27 12:51:00,
2013-01-27 07:54:00,29.1,28.1,30.26,SSW,210,0.0,0.0,96,0.00,,---,0.00,VWS V14.00,2013-01-27 12:54:00,
2013-01-27 07:57:00,29.2,28.0,30.25,SSW,210,0.0,0.0,95,0.00,,---,0.00,VWS V14.00,2013-01-27 12:57:00,
2013-01-27 08:00:00,29.3,28.0,30.25,SE,138,0.0,0.0,95,0.00,,---,0.00,VWS V14.00,2013-01-27 13:00:00,
2013-01-27 08:03:00,29.5,28.5,30.25,SE,139,0.0,0.0,96,0.00,,---,0.00,VWS V14.00,2013-01-27 13:03:00,
2013-01-27 08:06:00,29.4,28.1,30.25,SE,139,0.0,0.0,95,0.00,,---,0.00,VWS V14.00,2013-01-27 13:06:00,
2013-01-27 08:09:00,29.4,28.1,30.26,SE,139,0.0,0.0,95,0.00,,---,0.00,VWS V14.00,2013-01-27 13:09:00,
2013-01-27 08:12:00,29.3,27.8,30.26,SE,139,0.0,0.0,94,0.00,,---,0.00,VWS V14.00,2013-01-27 13:12:00,
2013-01-27 08:15:00,29.5,28.2,30.26,South,170,0.0,0.0,95,0.00,,---,0.00,VWS V14.00,2013-01-27 13:15:00,
2013-01-27 08:18:00,29.9,28.9,30.26,SSW,208,0.0,0.0,96,0.00,,---,0.00,VWS V14.00,2013-01-27 13:18:00,
2013-01-27 08:21:00,30.2,29.2,30.26,SW,224,0.0,0.0,96,0.00,,---,0.00,VWS V14.00,2013-01-27 13:21:00,
2013-01-27 08:24:00,30.6,29.6,30.26,SSE,161,0.0,0.0,96,0.00,,---,0.00,VWS V14.00,2013-01-27 13:24:00,
2013-01-27 08:27:00,31.1,30.1,30.26,SSW,197,2.0,2.0,96,0.00,,---,0.00,VWS V14.00,2013-01-27 13:27:00,
2013-01-27 08:30:00,31.6,30.3,30.26,SW,228,0.0,4.0,95,0.00,,---,0.00,VWS V14.00,2013-01-27 13:30:00,
2013-01-27 08:33:00,32.2,30.7,30.26,SSE,155,1.0,3.0,94,0.00,,---,0.00,VWS V14.00,2013-01-27 13:33:00,
2013-01-27 08:36:00,32.7,30.9,30.26,SSE,153,1.0,3.0,93,0.00,,---,0.00,VWS V14.00,2013-01-27 13:36:00,
2013-01-27 08:39:00,33.0,30.9,30.26,SW,218,2.0,3.0,92,0.00,,---,0.00,VWS V14.00,2013-01-27 13:39:00,
2013-01-27 08:42:00,33.3,31.0,30.26,South,172,3.0,5.0,91,0.00,,---,0.00,VWS V14.00,2013-01-27 13:42:00,
2013-01-27 08:45:00,33.6,31.0,30.27,SSW,211,3.0,5.0,90,0.00,,---,0.00,VWS V14.00,2013-01-27 13:45:00,
2013-01-27 08:48:00,33.7,31.1,30.27,SSW,212,3.0,6.0,90,0.00,,---,0.00,VWS V14.00,2013-01-27 13:48:00,
2013-01-27 08:51:00,34.0,31.1,30.27,SSE,166,2.0,7.0,89,0.00,,---,0.00,VWS V14.00,2013-01-27 13:51:00,
2013-01-27 08:54:00,34.3,31.4,30.27,SSW,205,6.0,7.0,89,0.00,,---,0.00,VWS V14.00,2013-01-27 13:54:00,
2013-01-27 08:57:00,34.5,31.3,30.27,South,183,5.0,7.0,88,0.00,,---,0.00,VWS V14.00,2013-01-27 13:57:00,
2013-01-27 09:00:00,34.7,31.2,30.27,South,169,2.0,8.0,87,0.00,,---,0.00,VWS V14.00,2013-01-27 14:00:00,
2013-01-27 09:03:00,34.9,31.4,30.28,South,170,6.0,7.0,87,0.00,,---,0.00,VWS V14.00,2013-01-27 14:03:00,
2013-01-27 09:06:00,35.1,31.3,30.28,South,183,3.0,7.0,86,0.00,,---,0.00,VWS V14.00,2013-01-27 14:06:00,
2013-01-27 09:09:00,35.1,31.3,30.28,SW,221,3.0,7.0,86,0.00,,---,0.00,VWS V14.00,2013-01-27 14:09:00,
2013-01-27 09:12:00,35.1,31.3,30.28,SSW,197,4.0,8.0,86,0.00,,---,0.00,VWS V14.00,2013-01-27 14:12:00,
2013-01-27 09:15:00,35.1,31.3,30.28,SSE,160,3.0,8.0,86,0.00,,---,0.00,VWS V14.00,2013-01-27 14:15:00,
2013-01-27 09:21:00,35.5,31.1,30.28,South,173,6.0,8.0,84,0.00,,---,0.00,VWS V14.00,2013-01-27 14:21:00,
2013-01-27 09:27:00,35.9,31.5,30.28,SW,215,5.0,8.0,84,0.00,,---,0.00,VWS V14.00,2013-01-27 14:27:00,
2013-01-27 09:30:00,36.0,31.4,30.28,SW,231,4.0,8.0,83,0.00,,---,0.00,VWS V14.00,2013-01-27 14:30:00,
2013-01-27 09:33:00,35.9,31.2,30.28,SW,217,4.0,5.0,83,0.00,,---,0.00,VWS V14.00,2013-01-27 14:33:00,
2013-01-27 09:36:00,36.1,31.5,30.28,SSW,195,3.0,5.0,83,0.00,,---,0.00,VWS V14.00,2013-01-27 14:36:00,
2013-01-27 09:42:00,36.5,31.5,30.28,SW,229,4.0,6.0,82,0.00,,---,0.00,VWS V14.00,2013-01-27 14:42:00,
2013-01-27 09:43:00,35.4,31.4,30.28,SSE,167,5.0,8.0,85,0.00,,---,0.00,VWS V14.00,2013-01-27 14:43:00,
2013-01-27 09:45:00,36.5,31.2,30.29,SE,143,2.0,6.0,81,0.00,,---,0.00,VWS V14.00,2013-01-27 14:45:00,
2013-01-27 09:49:00,35.7,31.6,30.28,South,184,4.0,8.0,85,0.00,,---,0.00,VWS V14.00,2013-01-27 14:49:00,
2013-01-27 09:51:00,36.6,31.3,30.29,SSE,162,1.0,7.0,81,0.00,,---,0.00,VWS V14.00,2013-01-27 14:51:00,
2013-01-27 09:54:00,36.9,32.2,30.29,SE,138,4.0,7.0,83,0.00,,---,0.00,VWS V14.00,2013-01-27 14:54:00,
2013-01-27 09:55:00,35.9,31.2,30.28,SW,225,3.0,5.0,83,0.00,,---,0.00,VWS V14.00,2013-01-27 14:55:00,
2013-01-27 09:57:00,37.1,31.5,30.29,SSE,166,3.0,7.0,80,0.00,,---,0.00,VWS V14.00,2013-01-27 14:57:00,
2013-01-27 10:00:00,37.2,31.6,30.29,SSE,167,3.0,7.0,80,0.00,,---,0.00,VWS V14.00,2013-01-27 15:00:00,
2013-01-27 10:04:00,36.4,31.4,30.28,SSW,197,1.0,5.0,82,0.00,,---,0.00,VWS V14.00,2013-01-27 15:04:00,
2013-01-27 10:06:00,37.4,31.8,30.29,SW,231,4.0,8.0,80,0.00,,---,0.00,VWS V14.00,2013-01-27 15:06:00,
2013-01-27 10:09:00,37.5,31.9,30.30,South,190,4.0,8.0,80,0.00,,---,0.00,VWS V14.00,2013-01-27 15:09:00,
2013-01-27 10:13:00,36.5,31.2,30.29,SSE,162,2.0,7.0,81,0.00,,---,0.00,VWS V14.00,2013-01-27 15:13:00,
2013-01-27 10:21:00,38.1,31.5,30.30,SSE,158,3.0,9.0,77,0.00,,---,0.00,VWS V14.00,2013-01-27 15:21:00,
2013-01-27 10:24:00,38.2,32.0,30.30,SSE,159,4.0,9.0,78,0.01,,---,0.01,VWS V14.00,2013-01-27 15:24:00,
2013-01-27 10:27:00,38.2,32.0,30.30,SSE,160,3.0,9.0,78,0.01,,---,0.01,VWS V14.00,2013-01-27 15:27:00,
2013-01-27 10:28:00,37.3,31.4,30.29,SSW,211,1.0,8.0,79,0.00,,---,0.00,VWS V14.00,2013-01-27 15:28:00,
2013-01-27 10:30:00,38.3,32.0,30.30,South,181,2.0,9.0,78,0.01,,---,0.01,VWS V14.00,2013-01-27 15:30:00,
2013-01-27 10:33:00,38.4,31.8,30.30,SE,141,3.0,5.0,77,0.01,,---,0.01,VWS V14.00,2013-01-27 15:33:00,
2013-01-27 10:36:00,38.7,32.8,30.30,South,177,2.0,8.0,79,0.01,,---,0.01,VWS V14.00,2013-01-27 15:36:00,
2013-01-27 10:37:00,37.8,31.9,30.30,SW,217,5.0,8.0,79,0.00,,---,0.00,VWS V14.00,2013-01-27 15:37:00,
2013-01-27 10:39:00,39.0,32.4,30.30,SSW,211,4.0,8.0,77,0.01,,---,0.01,VWS V14.00,2013-01-27 15:39:00,
2013-01-27 10:43:00,38.2,32.0,30.30,SSE,167,8.0,9.0,78,0.00,,---,0.00,VWS V14.00,2013-01-27 15:43:00,
2013-01-27 10:48:00,39.5,32.6,30.30,SSE,158,4.0,8.0,76,0.01,,---,0.01,VWS V14.00,2013-01-27 15:48:00,
2013-01-27 10:51:00,39.8,32.9,30.29,SE,141,5.0,9.0,76,0.01,,---,0.01,VWS V14.00,2013-01-27 15:51:00,
2013-01-27 10:54:00,39.8,32.5,30.29,SSE,148,5.0,9.0,75,0.01,,---,0.01,VWS V14.00,2013-01-27 15:54:00,
2013-01-27 10:57:00,39.7,32.4,30.29,South,177,6.0,9.0,75,0.01,,---,0.01,VWS V14.00,2013-01-27 15:57:00,
2013-01-27 11:00:00,39.7,32.4,30.28,SW,233,5.0,9.0,75,0.01,,---,0.01,VWS V14.00,2013-01-27 16:00:00,
2013-01-27 11:03:00,39.9,32.3,30.28,SSE,150,7.0,7.0,74,0.01,,---,0.01,VWS V14.00,2013-01-27 16:03:00,
2013-01-27 11:07:00,39.2,32.3,30.30,SSE,166,6.0,8.0,76,0.01,,---,0.01,VWS V14.00,2013-01-27 16:07:00,
2013-01-27 11:09:00,40.5,32.9,30.28,SE,145,3.0,7.0,74,0.01,,---,0.01,VWS V14.00,2013-01-27 16:09:00,
2013-01-27 11:13:00,40.8,32.8,30.28,SSW,207,5.0,8.0,73,0.01,,---,0.01,VWS V14.00,2013-01-27 16:13:00,
2013-01-27 11:16:00,40.7,32.4,30.28,SSW,208,2.0,8.0,72,0.01,,---,0.01,VWS V14.00,2013-01-27 16:16:00,
2013-01-27 11:19:00,40.9,32.9,30.28,SSE,148,3.0,8.0,73,0.01,,---,0.01,VWS V14.00,2013-01-27 16:19:00,
2013-01-27 11:22:00,41.2,33.2,30.27,SSE,162,3.0,8.0,73,0.01,,---,0.01,VWS V14.00,2013-01-27 16:22:00,
2013-01-27 11:25:00,39.7,32.1,30.28,SSW,198,4.0,6.0,74,0.01,,---,0.01,VWS V14.00,2013-01-27 16:25:00,
2013-01-27 11:28:00,41.5,33.2,30.27,South,169,9.0,10.0,72,0.01,,---,0.01,VWS V14.00,2013-01-27 16:28:00,
2013-01-27 11:30:00,41.5,32.1,30.26,SSW,193,5.0,10.0,69,0.01,,---,0.01,VWS V14.00,2013-01-27 16:30:00,
2013-01-27 11:31:00,40.1,32.5,30.28,SSE,148,4.0,7.0,74,0.01,,---,0.01,VWS V14.00,2013-01-27 16:31:00,
2013-01-27 11:34:00,42.0,34.3,30.26,South,177,6.0,8.0,74,0.00,,---,0.01,VWS V14.00,2013-01-27 16:34:00,
2013-01-27 11:37:00,42.3,33.2,30.26,SSW,198,5.0,9.0,70,0.00,,---,0.01,VWS V14.00,2013-01-27 16:37:00,
2013-01-27 11:40:00,42.4,33.3,30.26,SSW,205,4.0,9.0,70,0.00,,---,0.01,VWS V14.00,2013-01-27 16:40:00,
2013-01-27 11:43:00,42.5,33.1,30.26,South,183,6.0,9.0,69,0.00,,---,0.01,VWS V14.00,2013-01-27 16:43:00,
2013-01-27 11:46:00,42.7,33.2,30.26,SSE,153,4.0,10.0,69,0.00,,---,0.01,VWS V14.00,2013-01-27 16:46:00,
2013-01-27 11:49:00,42.7,33.2,30.26,SSW,197,9.0,10.0,69,0.00,,---,0.01,VWS V14.00,2013-01-27 16:49:00,
2013-01-27 11:52:00,42.6,32.8,30.26,SSW,204,7.0,10.0,68,0.00,,---,0.01,VWS V14.00,2013-01-27 16:52:00,
2013-01-27 11:55:00,42.5,32.3,30.26,SSW,212,6.0,10.0,67,0.00,,---,0.01,VWS V14.00,2013-01-27 16:55:00,
2013-01-27 11:58:00,42.5,33.4,30.25,South,188,3.0,10.0,70,0.00,,---,0.01,VWS V14.00,2013-01-27 16:58:00,
2013-01-27 12:00:00,42.7,33.6,30.25,SSW,193,5.0,10.0,70,0.00,,---,0.01,VWS V14.00,2013-01-27 17:00:00,
2013-01-27 12:01:00,42.8,33.3,30.25,SSE,156,6.0,8.0,69,0.00,,---,0.01,VWS V14.00,2013-01-27 17:01:00,
2013-01-27 12:04:00,43.0,33.5,30.25,SSW,201,5.0,8.0,69,0.00,,---,0.01,VWS V14.00,2013-01-27 17:04:00,
2013-01-27 12:07:00,43.2,33.0,30.24,SSW,197,4.0,8.0,67,0.00,,---,0.01,VWS V14.00,2013-01-27 17:07:00,
2013-01-27 12:10:00,43.2,33.7,30.24,SSW,203,4.0,11.0,69,0.00,,---,0.01,VWS V14.00,2013-01-27 17:10:00,
2013-01-27 12:13:00,43.1,33.3,30.24,SW,225,6.0,11.0,68,0.00,,---,0.01,VWS V14.00,2013-01-27 17:13:00,
2013-01-27 12:16:00,42.9,33.4,30.24,SSE,163,5.0,11.0,69,0.00,,---,0.01,VWS V14.00,2013-01-27 17:16:00,
2013-01-27 12:19:00,43.0,33.5,30.24,SSW,212,4.0,11.0,69,0.00,,---,0.01,VWS V14.00,2013-01-27 17:19:00,
2013-01-27 12:22:00,43.2,33.7,30.24,SSE,160,5.0,11.0,69,0.00,,---,0.01,VWS V14.00,2013-01-27 17:22:00,
2013-01-27 12:25:00,43.3,33.1,30.24,SSW,200,3.0,11.0,67,0.00,,---,0.01,VWS V14.00,2013-01-27 17:25:00,
2013-01-27 12:28:00,43.2,33.0,30.24,SSW,202,7.0,11.0,67,0.00,,---,0.01,VWS V14.00,2013-01-27 17:28:00,
2013-01-27 12:30:00,43.2,33.4,30.24,SE,145,6.0,11.0,68,0.00,,---,0.01,VWS V14.00,2013-01-27 17:30:00,
2013-01-27 12:31:00,43.2,33.4,30.24,SSE,165,5.0,8.0,68,0.00,,---,0.01,VWS V14.00,2013-01-27 17:31:00,
2013-01-27 12:34:00,43.3,33.8,30.24,SW,214,2.0,9.0,69,0.00,,---,0.01,VWS V14.00,2013-01-27 17:34:00,
2013-01-27 12:37:00,43.5,33.7,30.24,SSW,213,4.0,9.0,68,0.00,,---,0.01,VWS V14.00,2013-01-27 17:37:00,
2013-01-27 12:40:00,43.7,33.8,30.23,South,176,5.0,10.0,68,0.00,,---,0.01,VWS V14.00,2013-01-27 17:40:00,
2013-01-27 12:43:00,43.7,33.5,30.23,SE,144,6.0,10.0,67,0.00,,---,0.01,VWS V14.00,2013-01-27 17:43:00,
2013-01-27 12:46:00,43.7,33.8,30.23,SSE,164,5.0,10.0,68,0.00,,---,0.01,VWS V14.00,2013-01-27 17:46:00,
2013-01-27 12:49:00,43.9,33.7,30.23,SSE,167,4.0,10.0,67,0.00,,---,0.01,VWS V14.00,2013-01-27 17:49:00,
2013-01-27 12:52:00,44.0,33.4,30.23,SE,145,2.0,10.0,66,0.00,,---,0.01,VWS V14.00,2013-01-27 17:52:00,
2013-01-27 12:55:00,44.1,33.5,30.23,SE,129,0.0,10.0,66,0.00,,---,0.01,VWS V14.00,2013-01-27 17:55:00,
2013-01-27 12:58:00,44.5,34.2,30.23,SSW,211,3.0,10.0,67,0.00,,---,0.01,VWS V14.00,2013-01-27 17:58:00,
2013-01-27 13:00:00,44.8,34.2,30.23,SSE,148,7.0,10.0,66,0.00,,---,0.01,VWS V14.00,2013-01-27 18:00:00,
2013-01-27 13:01:00,44.8,33.4,30.23,South,187,3.0,8.0,64,0.00,,---,0.01,VWS V14.00,2013-01-27 18:01:00,
2013-01-27 13:04:00,45.0,34.3,30.23,SSE,167,4.0,8.0,66,0.00,,---,0.01,VWS V14.00,2013-01-27 18:04:00,
2013-01-27 13:07:00,45.2,34.2,30.23,SSE,162,6.0,8.0,65,0.00,,---,0.01,VWS V14.00,2013-01-27 18:07:00,
2013-01-27 13:10:00,45.2,33.4,30.22,SSE,154,3.0,8.0,63,0.00,,---,0.01,VWS V14.00,2013-01-27 18:10:00,
2013-01-27 13:13:00,45.2,34.2,30.22,SW,214,3.0,8.0,65,0.00,,---,0.01,VWS V14.00,2013-01-27 18:13:00,
2013-01-27 13:16:00,45.5,34.4,30.22,SSE,158,3.0,8.0,65,0.00,,---,0.01,VWS V14.00,2013-01-27 18:16:00,
2013-01-27 13:19:00,45.8,34.3,30.22,South,183,3.0,8.0,64,0.00,,---,0.01,VWS V14.00,2013-01-27 18:19:00,
2013-01-27 13:22:00,45.8,33.9,30.22,South,179,4.0,8.0,63,0.00,,---,0.01,VWS V14.00,2013-01-27 18:22:00,
2013-01-27 13:25:00,45.8,33.9,30.21,SSE,155,10.0,10.0,63,0.00,,---,0.01,VWS V14.00,2013-01-27 18:25:00,
2013-01-27 13:28:00,45.8,34.3,30.21,SSE,166,8.0,10.0,64,0.00,,---,0.01,VWS V14.00,2013-01-27 18:28:00,
2013-01-27 13:30:00,45.9,34.4,30.21,SE,139,5.0,10.0,64,0.00,,---,0.01,VWS V14.00,2013-01-27 18:30:00,
2013-01-27 13:31:00,46.0,34.5,30.21,SSE,159,6.0,9.0,64,0.00,,---,0.01,VWS V14.00,2013-01-27 18:31:00,
2013-01-27 13:34:00,46.0,34.5,30.21,South,187,5.0,9.0,64,0.00,,---,0.01,VWS V14.00,2013-01-27 18:34:00,
2013-01-27 13:37:00,46.1,34.2,30.21,South,176,4.0,9.0,63,0.00,,---,0.01,VWS V14.00,2013-01-27 18:37:00,
2013-01-27 13:40:00,46.1,34.6,30.21,SSW,205,4.0,9.0,64,0.00,,---,0.01,VWS V14.00,2013-01-27 18:40:00,
2013-01-27 13:43:00,46.3,34.0,30.20,SSE,165,3.0,9.0,62,0.00,,---,0.01,VWS V14.00,2013-01-27 18:43:00,
2013-01-27 13:46:00,46.5,35.0,30.20,SSE,162,7.0,9.0,64,0.00,,---,0.01,VWS V14.00,2013-01-27 18:46:00,
2013-01-27 13:49:00,46.7,34.4,30.21,SSW,208,6.0,9.0,62,0.00,,---,0.01,VWS V14.00,2013-01-27 18:49:00,
2013-01-27 13:52:00,46.6,34.3,30.21,SSE,150,9.0,10.0,62,0.00,,---,0.01,VWS V14.00,2013-01-27 18:52:00,
2013-01-27 13:55:00,46.7,34.8,30.20,SSE,164,7.0,11.0,63,0.00,,---,0.01,VWS V14.00,2013-01-27 18:55:00,
2013-01-27 13:58:00,46.8,34.5,30.21,SSE,160,10.0,11.0,62,0.00,,---,0.01,VWS V14.00,2013-01-27 18:58:00,
2013-01-27 14:00:00,46.9,35.0,30.21,South,186,4.0,11.0,63,0.00,,---,0.01,VWS V14.00,2013-01-27 19:00:00,
2013-01-27 14:01:00,46.9,34.2,30.21,SSE,162,11.0,12.0,61,0.00,,---,0.01,VWS V14.00,2013-01-27 19:01:00,
2013-01-27 14:04:00,46.9,34.6,30.21,SSE,153,10.0,14.0,62,0.00,,---,0.01,VWS V14.00,2013-01-27 19:04:00,
2013-01-27 14:07:00,46.8,34.1,30.20,SSE,165,9.0,14.0,61,0.00,,---,0.01,VWS V14.00,2013-01-27 19:07:00,
2013-01-27 14:10:00,46.9,35.4,30.21,SSW,201,5.0,14.0,64,0.00,,---,0.01,VWS V14.00,2013-01-27 19:10:00,
2013-01-27 14:13:00,47.2,35.7,30.21,SE,132,8.0,14.0,64,0.00,,---,0.01,VWS V14.00,2013-01-27 19:13:00,
2013-01-27 14:16:00,47.1,34.8,30.20,SW,224,4.0,14.0,62,0.00,,---,0.01,VWS V14.00,2013-01-27 19:16:00,
2013-01-27 14:19:00,47.1,34.4,30.20,SSE,163,5.0,14.0,61,0.00,,---,0.01,VWS V14.00,2013-01-27 19:19:00,
2013-01-27 14:22:00,47.1,34.4,30.20,SSW,198,6.0,14.0,61,0.00,,---,0.01,VWS V14.00,2013-01-27 19:22:00,
2013-01-27 14:25:00,47.0,35.1,30.20,SSW,193,6.0,14.0,63,0.00,,---,0.01,VWS V14.00,2013-01-27 19:25:00,
2013-01-27 14:28:00,47.0,34.7,30.21,SSE,158,3.0,14.0,62,0.00,,---,0.01,VWS V14.00,2013-01-27 19:28:00,
2013-01-27 14:30:00,47.0,34.7,30.21,SSE,166,7.0,14.0,62,0.00,,---,0.01,VWS V14.00,2013-01-27 19:30:00,
2013-01-27 14:31:00,47.0,34.3,30.21,SE,135,6.0,8.0,61,0.00,,---,0.01,VWS V14.00,2013-01-27 19:31:00,
2013-01-27 14:34:00,46.8,34.1,30.20,SE,133,6.0,14.0,61,0.00,,---,0.01,VWS V14.00,2013-01-27 19:34:00,
2013-01-27 14:37:00,46.4,34.9,30.20,SSE,160,5.0,14.0,64,0.00,,---,0.01,VWS V14.00,2013-01-27 19:37:00,
2013-01-27 14:40:00,46.6,35.1,30.21,SSE,162,3.0,14.0,64,0.00,,---,0.01,VWS V14.00,2013-01-27 19:40:00,
2013-01-27 14:43:00,46.7,34.8,30.21,SW,221,6.0,14.0,63,0.00,,---,0.01,VWS V14.00,2013-01-27 19:43:00,
2013-01-27 14:46:00,46.7,34.4,30.20,South,183,4.0,14.0,62,0.00,,---,0.01,VWS V14.00,2013-01-27 19:46:00,
2013-01-27 14:49:00,46.6,34.7,30.20,South,188,7.0,14.0,63,0.00,,---,0.01,VWS V14.00,2013-01-27 19:49:00,
2013-01-27 14:52:00,46.5,34.2,30.21,SSE,154,6.0,14.0,62,0.00,,---,0.01,VWS V14.00,2013-01-27 19:52:00,
2013-01-27 14:55:00,46.5,34.6,30.21,SSE,160,5.0,14.0,63,0.00,,---,0.01,VWS V14.00,2013-01-27 19:55:00,
2013-01-27 14:58:00,46.4,34.1,30.21,SSE,147,6.0,14.0,62,0.00,,---,0.01,VWS V14.00,2013-01-27 19:58:00,
2013-01-27 15:00:00,46.3,34.0,30.21,SSE,163,6.0,14.0,62,0.00,,---,0.01,VWS V14.00,2013-01-27 20:00:00,
2013-01-27 15:01:00,46.2,34.3,30.21,SSE,167,5.0,8.0,63,0.00,,---,0.01,VWS V14.00,2013-01-27 20:01:00,
2013-01-27 15:04:00,46.1,34.2,30.21,SSE,163,7.0,9.0,63,0.00,,---,0.01,VWS V14.00,2013-01-27 20:04:00,
2013-01-27 15:07:00,46.0,34.1,30.21,South,177,9.0,10.0,63,0.00,,---,0.01,VWS V14.00,2013-01-27 20:07:00,
2013-01-27 15:10:00,45.9,34.4,30.21,SSW,204,5.0,10.0,64,0.00,,---,0.01,VWS V14.00,2013-01-27 20:10:00,
2013-01-27 15:14:00,45.9,34.0,30.20,SSE,163,7.0,10.0,63,0.00,,---,0.01,VWS V14.00,2013-01-27 20:14:00,
2013-01-27 15:17:00,45.9,34.4,30.20,SE,138,6.0,10.0,64,0.00,,---,0.01,VWS V14.00,2013-01-27 20:17:00,
2013-01-27 15:20:00,46.0,34.5,30.20,SSE,166,10.0,13.0,64,0.00,,---,0.01,VWS V14.00,2013-01-27 20:20:00,
2013-01-27 15:23:00,45.9,34.4,30.20,SSE,164,5.0,13.0,64,0.00,,---,0.01,VWS V14.00,2013-01-27 20:23:00,
2013-01-27 15:26:00,45.7,34.2,30.20,SSE,150,9.0,13.0,64,0.00,,---,0.01,VWS V14.00,2013-01-27 20:26:00,
2013-01-27 15:29:00,45.6,34.1,30.20,South,179,7.0,13.0,64,0.00,,---,0.01,VWS V14.00,2013-01-27 20:29:00,
2013-01-27 15:30:00,45.5,34.4,30.20,SSE,158,9.0,13.0,65,0.00,,---,0.01,VWS V14.00,2013-01-27 20:30:00,
2013-01-27 15:32:00,45.5,34.0,30.21,SSE,155,4.0,9.0,64,0.00,,---,0.01,VWS V14.00,2013-01-27 20:32:00,
2013-01-27 15:35:00,45.3,34.2,30.21,SSE,165,7.0,10.0,65,0.00,,---,0.01,VWS V14.00,2013-01-27 20:35:00,
2013-01-27 15:38:00,45.2,34.2,30.21,South,174,5.0,11.0,65,0.00,,---,0.01,VWS V14.00,2013-01-27 20:38:00,
2013-01-27 15:41:00,45.1,34.0,30.21,South,179,7.0,11.0,65,0.00,,---,0.01,VWS V14.00,2013-01-27 20:41:00,
2013-01-27 15:44:00,45.1,34.4,30.21,SSW,195,4.0,11.0,66,0.00,,---,0.01,VWS V14.00,2013-01-27 20:44:00,
2013-01-27 15:47:00,45.0,34.3,30.21,South,187,5.0,11.0,66,0.00,,---,0.01,VWS V14.00,2013-01-27 20:47:00,
2013-01-27 15:50:00,45.0,34.3,30.21,South,176,8.0,11.0,66,0.00,,---,0.01,VWS V14.00,2013-01-27 20:50:00,
2013-01-27 15:53:00,44.9,34.6,30.21,SSE,155,6.0,11.0,67,0.00,,---,0.01,VWS V14.00,2013-01-27 20:53:00,
2013-01-27 15:56:00,44.8,34.2,30.21,South,183,4.0,11.0,66,0.00,,---,0.01,VWS V14.00,2013-01-27 20:56:00,
2013-01-27 15:59:00,44.8,34.5,30.21,SSW,194,7.0,11.0,67,0.00,,---,0.01,VWS V14.00,2013-01-27 20:59:00,
2013-01-27 16:00:00,44.7,34.0,30.21,South,172,10.0,11.0,66,0.00,,---,0.01,VWS V14.00,2013-01-27 21:00:00,
2013-01-27 16:02:00,44.6,34.0,30.22,SSE,152,8.0,11.0,66,0.00,,---,0.01,VWS V14.00,2013-01-27 21:02:00,
2013-01-27 16:05:00,44.4,34.1,30.22,SSE,163,9.0,11.0,67,0.00,,---,0.01,VWS V14.00,2013-01-27 21:05:00,
2013-01-27 16:08:00,44.3,34.0,30.22,SE,143,5.0,12.0,67,0.00,,---,0.01,VWS V14.00,2013-01-27 21:08:00,
2013-01-27 16:11:00,44.2,34.0,30.23,SSW,194,4.0,12.0,67,0.00,,---,0.01,VWS V14.00,2013-01-27 21:11:00,
2013-01-27 16:14:00,44.2,34.0,30.23,SSE,157,9.0,12.0,67,0.00,,---,0.01,VWS V14.00,2013-01-27 21:14:00,
2013-01-27 16:17:00,44.0,33.8,30.23,South,176,8.0,12.0,67,0.00,,---,0.01,VWS V14.00,2013-01-27 21:17:00,
2013-01-27 16:20:00,43.7,33.8,30.24,SSE,159,11.0,12.0,68,0.00,,---,0.01,VWS V14.00,2013-01-27 21:20:00,
2013-01-27 16:23:00,43.5,33.7,30.23,SE,134,4.0,12.0,68,0.00,,---,0.01,VWS V14.00,2013-01-27 21:23:00,
2013-01-27 16:26:00,43.4,33.9,30.23,SSE,165,6.0,12.0,69,0.00,,---,0.01,VWS V14.00,2013-01-27 21:26:00,
2013-01-27 16:29:00,43.3,33.8,30.23,South,173,5.0,12.0,69,0.00,,---,0.01,VWS V14.00,2013-01-27 21:29:00,
2013-01-27 16:30:00,43.3,34.2,30.24,South,186,7.0,12.0,70,0.00,,---,0.01,VWS V14.00,2013-01-27 21:30:00,
2013-01-27 16:32:00,43.3,33.8,30.24,SSE,160,9.0,10.0,69,0.00,,---,0.01,VWS V14.00,2013-01-27 21:32:00,
2013-01-27 16:35:00,43.2,33.7,30.24,SSE,163,6.0,10.0,69,0.00,,---,0.01,VWS V14.00,2013-01-27 21:35:00,
2013-01-27 16:38:00,43.2,33.7,30.24,SSE,163,6.0,10.0,69,0.00,,---,0.01,VWS V14.00,2013-01-27 21:38:00,
2013-01-27 16:41:00,43.1,33.6,30.24,SSE,148,9.0,10.0,69,0.00,,---,0.01,VWS V14.00,2013-01-27 21:41:00,
2013-01-27 16:44:00,43.1,33.6,30.24,South,173,7.0,10.0,69,0.00,,---,0.01,VWS V14.00,2013-01-27 21:44:00,
2013-01-27 16:47:00,43.1,34.0,30.24,SE,145,7.0,10.0,70,0.00,,---,0.01,VWS V14.00,2013-01-27 21:47:00,
2013-01-27 16:50:00,42.9,33.4,30.24,SSE,153,6.0,10.0,69,0.00,,---,0.01,VWS V14.00,2013-01-27 21:50:00,
2013-01-27 16:53:00,42.9,33.8,30.24,SSE,166,8.0,10.0,70,0.00,,---,0.01,VWS V14.00,2013-01-27 21:53:00,
2013-01-27 16:56:00,42.9,33.8,30.24,SSE,167,6.0,10.0,70,0.00,,---,0.01,VWS V14.00,2013-01-27 21:56:00,
2013-01-27 16:59:00,42.8,33.7,30.24,SSE,163,9.0,10.0,70,0.00,,---,0.01,VWS V14.00,2013-01-27 21:59:00,
2013-01-27 17:00:00,42.8,33.7,30.24,SSE,163,5.0,10.0,70,0.00,,---,0.01,VWS V14.00,2013-01-27 22:00:00,
2013-01-27 17:02:00,42.8,33.7,30.24,South,174,7.0,11.0,70,0.00,,---,0.01,VWS V14.00,2013-01-27 22:02:00,
2013-01-27 17:05:00,42.7,33.6,30.24,SSE,162,8.0,11.0,70,0.00,,---,0.01,VWS V14.00,2013-01-27 22:05:00,
2013-01-27 17:08:00,42.6,33.5,30.24,SSE,159,7.0,12.0,70,0.00,,---,0.01,VWS V14.00,2013-01-27 22:08:00,
2013-01-27 17:11:00,42.6,33.9,30.24,SSE,166,10.0,12.0,71,0.00,,---,0.01,VWS V14.00,2013-01-27 22:11:00,
2013-01-27 17:14:00,42.5,33.8,30.25,South,173,7.0,12.0,71,0.00,,---,0.01,VWS V14.00,2013-01-27 22:14:00,
2013-01-27 17:17:00,42.4,33.7,30.25,SSE,161,5.0,12.0,71,0.00,,---,0.01,VWS V14.00,2013-01-27 22:17:00,
2013-01-27 17:20:00,42.4,33.7,30.25,South,191,4.0,12.0,71,0.00,,---,0.01,VWS V14.00,2013-01-27 22:20:00,
2013-01-27 17:23:00,42.4,33.7,30.25,SE,141,6.0,12.0,71,0.00,,---,0.01,VWS V14.00,2013-01-27 22:23:00,
2013-01-27 17:26:00,42.3,33.6,30.24,SSE,148,7.0,12.0,71,0.00,,---,0.01,VWS V14.00,2013-01-27 22:26:00,
2013-01-27 17:29:00,42.2,33.5,30.24,South,172,6.0,12.0,71,0.00,,---,0.01,VWS V14.00,2013-01-27 22:29:00,
2013-01-27 17:30:00,42.2,33.5,30.24,South,170,4.0,12.0,71,0.00,,---,0.01,VWS V14.00,2013-01-27 22:30:00,
2013-01-27 17:32:00,42.2,33.8,30.24,SSE,167,6.0,7.0,72,0.00,,---,0.01,VWS V14.00,2013-01-27 22:32:00,
2013-01-27 17:35:00,42.1,33.7,30.24,SSE,162,7.0,8.0,72,0.00,,---,0.01,VWS V14.00,2013-01-27 22:35:00,
2013-01-27 17:38:00,42.1,33.7,30.24,SSE,161,7.0,8.0,72,0.00,,---,0.01,VWS V14.00,2013-01-27 22:38:00,
2013-01-27 17:41:00,42.0,33.6,30.24,SSE,160,7.0,8.0,72,0.00,,---,0.01,VWS V14.00,2013-01-27 22:41:00,
2013-01-27 17:44:00,42.0,33.6,30.24,South,173,4.0,8.0,72,0.00,,---,0.01,VWS V14.00,2013-01-27 22:44:00,
2013-01-27 17:47:00,41.9,33.5,30.25,South,177,4.0,8.0,72,0.00,,---,0.01,VWS V14.00,2013-01-27 22:47:00,
2013-01-27 17:50:00,41.9,33.5,30.25,SSE,151,6.0,8.0,72,0.00,,---,0.01,VWS V14.00,2013-01-27 22:50:00,
2013-01-27 17:53:00,41.8,33.5,30.25,South,184,2.0,8.0,72,0.00,,---,0.01,VWS V14.00,2013-01-27 22:53:00,
2013-01-27 17:56:00,41.7,33.3,30.25,SSE,163,5.0,8.0,72,0.00,,---,0.01,VWS V14.00,2013-01-27 22:56:00,
2013-01-27 17:59:00,41.7,33.3,30.25,SSE,166,4.0,8.0,72,0.00,,---,0.01,VWS V14.00,2013-01-27 22:59:00,
2013-01-27 18:00:00,41.7,33.3,30.25,South,177,4.0,8.0,72,0.00,,---,0.01,VWS V14.00,2013-01-27 23:00:00,
2013-01-27 18:08:00,41.5,33.2,30.25,South,182,6.0,7.0,72,0.00,,---,0.01,VWS V14.00,2013-01-27 23:08:00,
2013-01-27 18:11:00,41.5,33.5,30.25,South,184,2.0,7.0,73,0.00,,---,0.01,VWS V14.00,2013-01-27 23:11:00,
2013-01-27 18:14:00,41.4,33.4,30.25,South,186,2.0,7.0,73,0.00,,---,0.01,VWS V14.00,2013-01-27 23:14:00,
2013-01-27 18:17:00,41.4,33.4,30.25,WSW,248,2.0,7.0,73,0.00,,---,0.01,VWS V14.00,2013-01-27 23:17:00,
2013-01-27 18:20:00,41.3,33.3,30.25,South,170,5.0,7.0,73,0.00,,---,0.01,VWS V14.00,2013-01-27 23:20:00,
2013-01-27 18:23:00,41.3,33.3,30.25,SSW,208,3.0,7.0,73,0.00,,---,0.01,VWS V14.00,2013-01-27 23:23:00,
2013-01-27 18:26:00,41.3,33.3,30.25,SSW,201,4.0,7.0,73,0.00,,---,0.01,VWS V14.00,2013-01-27 23:26:00,
2013-01-27 18:27:00,41.7,33.3,30.25,SSE,155,2.0,5.0,72,0.00,,---,0.01,VWS V14.00,2013-01-27 23:27:00,
2013-01-27 18:30:00,41.3,33.7,30.25,South,171,2.0,7.0,74,0.00,,---,0.01,VWS V14.00,2013-01-27 23:30:00,
2013-01-27 18:32:00,41.2,33.2,30.25,SW,216,2.0,4.0,73,0.00,,---,0.01,VWS V14.00,2013-01-27 23:32:00,
2013-01-27 18:38:00,41.1,33.1,30.25,SSE,167,6.0,6.0,73,0.00,,---,0.01,VWS V14.00,2013-01-27 23:38:00,
2013-01-27 18:47:00,41.1,33.5,30.26,SW,233,4.0,7.0,74,0.00,,---,0.01,VWS V14.00,2013-01-27 23:47:00,
2013-01-27 18:54:00,41.2,33.2,30.25,SW,221,2.0,7.0,73,0.00,,---,0.01,VWS V14.00,2013-01-27 23:54:00,
2013-01-27 18:56:00,40.9,33.3,30.26,SSW,201,3.0,7.0,74,0.00,,---,0.01,VWS V14.00,2013-01-27 23:56:00,
2013-01-27 18:59:00,40.9,33.3,30.26,South,176,1.0,7.0,74,0.00,,---,0.01,VWS V14.00,2013-01-27 23:59:00,
2013-01-27 19:00:00,41.2,33.2,30.25,SW,226,2.0,5.0,73,0.00,,---,0.01,VWS V14.00,2013-01-28 00:00:00,
2013-01-27 19:05:00,40.8,33.2,30.25,SW,217,2.0,4.0,74,0.00,,---,0.01,VWS V14.00,2013-01-28 00:05:00,
2013-01-27 19:06:00,41.1,33.1,30.25,SE,136,2.0,6.0,73,0.00,,---,0.01,VWS V14.00,2013-01-28 00:06:00,
2013-01-27 19:08:00,40.8,33.2,30.25,SW,222,4.0,5.0,74,0.00,,---,0.01,VWS V14.00,2013-01-28 00:08:00,
2013-01-27 19:11:00,40.8,33.2,30.25,SW,221,3.0,5.0,74,0.00,,---,0.01,VWS V14.00,2013-01-28 00:11:00,
2013-01-27 19:14:00,40.7,33.1,30.25,SW,226,3.0,5.0,74,0.00,,---,0.01,VWS V14.00,2013-01-28 00:14:00,
2013-01-27 19:15:00,41.0,33.4,30.26,SW,225,3.0,7.0,74,0.00,,---,0.01,VWS V14.00,2013-01-28 00:15:00,
2013-01-27 19:17:00,40.7,33.1,30.25,SSW,210,4.0,6.0,74,0.00,,---,0.01,VWS V14.00,2013-01-28 00:17:00,
2013-01-27 19:20:00,40.6,32.6,30.25,SW,221,6.0,6.0,73,0.00,,---,0.01,VWS V14.00,2013-01-28 00:20:00,
2013-01-27 19:23:00,40.6,33.0,30.26,SSW,197,5.0,6.0,74,0.00,,---,0.01,VWS V14.00,2013-01-28 00:23:00,
2013-01-27 19:26:00,40.6,32.6,30.26,WSW,243,5.0,6.0,73,0.00,,---,0.01,VWS V14.00,2013-01-28 00:26:00,
2013-01-27 19:27:00,40.8,33.2,30.26,SSW,210,1.0,4.0,74,0.00,,---,0.01,VWS V14.00,2013-01-28 00:27:00,
2013-01-27 19:30:00,40.6,33.0,30.26,SW,214,6.0,7.0,74,0.00,,---,0.01,VWS V14.00,2013-01-28 00:30:00,
2013-01-27 19:32:00,40.6,33.0,30.26,South,176,2.0,7.0,74,0.00,,---,0.01,VWS V14.00,2013-01-28 00:32:00,
2013-01-27 19:35:00,40.6,33.0,30.26,SSW,200,2.0,7.0,74,0.00,,---,0.01,VWS V14.00,2013-01-28 00:35:00,
2013-01-27 19:38:00,40.5,32.9,30.26,SSW,204,4.0,7.0,74,0.00,,---,0.01,VWS V14.00,2013-01-28 00:38:00,
2013-01-27 19:44:00,40.5,32.9,30.26,South,176,4.0,7.0,74,0.00,,---,0.01,VWS V14.00,2013-01-28 00:44:00,
2013-01-27 19:47:00,40.5,32.9,30.26,South,173,5.0,7.0,74,0.00,,---,0.01,VWS V14.00,2013-01-28 00:47:00,
2013-01-27 19:54:00,40.6,33.0,30.26,SW,229,6.0,7.0,74,0.00,,---,0.01,VWS V14.00,2013-01-28 00:54:00,
2013-01-27 19:57:00,40.4,33.1,30.26,South,184,2.0,7.0,75,0.00,,---,0.01,VWS V14.00,2013-01-28 00:57:00,
2013-01-27 20:00:00,40.3,33.0,30.26,South,172,2.0,7.0,75,0.00,,---,0.01,VWS V14.00,2013-01-28 01:00:00,
2013-01-27 20:03:00,40.3,33.0,30.26,South,184,3.0,5.0,75,0.00,,---,0.01,VWS V14.00,2013-01-28 01:03:00,
2013-01-27 20:06:00,40.5,32.9,30.26,SSE,166,5.0,7.0,74,0.00,,---,0.01,VWS V14.00,2013-01-28 01:06:00,
2013-01-27 20:09:00,40.3,33.0,30.26,South,178,1.0,5.0,75,0.00,,---,0.01,VWS V14.00,2013-01-28 01:09:00,
2013-01-27 20:12:00,40.3,33.0,30.26,SW,222,2.0,6.0,75,0.00,,---,0.01,VWS V14.00,2013-01-28 01:12:00,
2013-01-27 20:15:00,40.4,32.8,30.26,South,176,4.0,7.0,74,0.00,,---,0.01,VWS V14.00,2013-01-28 01:15:00,
2013-01-27 20:18:00,40.3,33.0,30.26,SE,127,4.0,6.0,75,0.00,,---,0.01,VWS V14.00,2013-01-28 01:18:00,
2013-01-27 20:21:00,40.2,32.9,30.26,South,189,1.0,6.0,75,0.00,,---,0.01,VWS V14.00,2013-01-28 01:21:00,
2013-01-27 20:24:00,40.2,32.9,30.26,SSW,210,6.0,8.0,75,0.00,,---,0.01,VWS V14.00,2013-01-28 01:24:00,
2013-01-27 20:27:00,40.2,32.9,30.26,SSW,205,5.0,8.0,75,0.00,,---,0.01,VWS V14.00,2013-01-28 01:27:00,
2013-01-27 20:30:00,40.1,32.8,30.26,SSE,160,6.0,8.0,75,0.00,,---,0.01,VWS V14.00,2013-01-28 01:30:00,
2013-01-27 20:33:00,40.1,32.8,30.27,SSE,163,5.0,7.0,75,0.00,,---,0.01,VWS V14.00,2013-01-28 01:33:00,
2013-01-27 20:36:00,40.1,32.8,30.27,SSE,163,4.0,7.0,75,0.00,,---,0.01,VWS V14.00,2013-01-28 01:36:00,
2013-01-27 20:39:00,40.1,32.8,30.27,SSW,195,2.0,7.0,75,0.00,,---,0.01,VWS V14.00,2013-01-28 01:39:00,
2013-01-27 20:42:00,40.1,32.5,30.27,SE,141,2.0,7.0,74,0.00,,---,0.01,VWS V14.00,2013-01-28 01:42:00,
2013-01-27 20:45:00,40.1,32.8,30.27,South,181,2.0,7.0,75,0.00,,---,0.01,VWS V14.00,2013-01-28 01:45:00,
2013-01-27 20:48:00,40.1,32.8,30.27,South,172,6.0,7.0,75,0.00,,---,0.01,VWS V14.00,2013-01-28 01:48:00,
2013-01-27 20:51:00,40.1,32.8,30.26,SSE,167,4.0,8.0,75,0.00,,---,0.01,VWS V14.00,2013-01-28 01:51:00,
2013-01-27 20:54:00,40.1,32.8,30.27,South,179,3.0,8.0,75,0.00,,---,0.01,VWS V14.00,2013-01-28 01:54:00,
2013-01-27 20:57:00,40.0,32.4,30.27,South,176,4.0,8.0,74,0.00,,---,0.01,VWS V14.00,2013-01-28 01:57:00,
2013-01-27 21:00:00,40.0,32.7,30.27,SSW,206,4.0,8.0,75,0.00,,---,0.01,VWS V14.00,2013-01-28 02:00:00,
2013-01-27 21:03:00,40.0,32.7,30.27,South,179,4.0,8.0,75,0.00,,---,0.01,VWS V14.00,2013-01-28 02:03:00,
2013-01-27 21:06:00,40.0,32.7,30.27,South,189,3.0,8.0,75,0.00,,---,0.01,VWS V14.00,2013-01-28 02:06:00,
2013-01-27 21:09:00,40.0,32.7,30.26,South,170,4.0,8.0,75,0.00,,---,0.01,VWS V14.00,2013-01-28 02:09:00,
2013-01-27 21:12:00,40.0,32.7,30.26,SSW,210,3.0,8.0,75,0.00,,---,0.01,VWS V14.00,2013-01-28 02:12:00,
2013-01-27 21:15:00,40.0,32.7,30.26,SSE,162,3.0,8.0,75,0.00,,---,0.01,VWS V14.00,2013-01-28 02:15:00,
2013-01-27 21:18:00,40.0,32.7,30.27,South,191,3.0,8.0,75,0.00,,---,0.01,VWS V14.00,2013-01-28 02:18:00,
2013-01-27 21:21:00,40.0,32.7,30.27,South,177,5.0,8.0,75,0.00,,---,0.01,VWS V14.00,2013-01-28 02:21:00,
2013-01-27 21:24:00,40.0,32.7,30.27,SSW,208,4.0,8.0,75,0.00,,---,0.01,VWS V14.00,2013-01-28 02:24:00,
2013-01-27 21:27:00,40.0,32.7,30.27,South,169,5.0,8.0,75,0.00,,---,0.01,VWS V14.00,2013-01-28 02:27:00,
2013-01-27 21:30:00,40.0,32.7,30.27,SSW,201,3.0,8.0,75,0.00,,---,0.01,VWS V14.00,2013-01-28 02:30:00,
2013-01-27 21:33:00,40.0,32.7,30.27,South,179,2.0,5.0,75,0.00,,---,0.01,VWS V14.00,2013-01-28 02:33:00,
2013-01-27 21:36:00,40.0,32.7,30.26,South,181,4.0,5.0,75,0.00,,---,0.01,VWS V14.00,2013-01-28 02:36:00,
2013-01-27 21:39:00,40.0,32.4,30.26,South,188,1.0,5.0,74,0.00,,---,0.01,VWS V14.00,2013-01-28 02:39:00,
2013-01-27 21:42:00,40.0,32.7,30.26,SW,216,5.0,5.0,75,0.00,,---,0.01,VWS V14.00,2013-01-28 02:42:00,
2013-01-27 21:45:00,40.0,32.7,30.26,SSW,213,3.0,6.0,75,0.00,,---,0.01,VWS V14.00,2013-01-28 02:45:00,
2013-01-27 21:48:00,40.0,32.7,30.26,SW,233,4.0,7.0,75,0.00,,---,0.01,VWS V14.00,2013-01-28 02:48:00,
2013-01-27 21:51:00,40.0,32.7,30.26,WSW,242,5.0,7.0,75,0.00,,---,0.01,VWS V14.00,2013-01-28 02:51:00,
2013-01-27 21:54:00,40.0,32.7,30.26,SW,214,2.0,7.0,75,0.00,,---,0.01,VWS V14.00,2013-01-28 02:54:00,
2013-01-27 21:57:00,40.0,33.1,30.26,SW,233,3.0,7.0,76,0.00,,---,0.01,VWS V14.00,2013-01-28 02:57:00,
2013-01-27 22:00:00,40.0,32.7,30.26,SSW,205,3.0,7.0,75,0.00,,---,0.01,VWS V14.00,2013-01-28 03:00:00,
2013-01-27 22:03:00,40.0,32.7,30.26,SSW,212,1.0,5.0,75,0.00,,---,0.01,VWS V14.00,2013-01-28 03:03:00,
2013-01-27 22:06:00,40.0,32.7,30.26,SSE,163,1.0,5.0,75,0.00,,---,0.01,VWS V14.00,2013-01-28 03:06:00,
2013-01-27 22:09:00,40.0,32.7,30.25,SW,224,1.0,5.0,75,0.00,,---,0.01,VWS V14.00,2013-01-28 03:09:00,
2013-01-27 22:12:00,40.0,32.7,30.25,SW,221,3.0,5.0,75,0.00,,---,0.01,VWS V14.00,2013-01-28 03:12:00,
2013-01-27 22:15:00,40.1,32.8,30.25,SW,214,1.0,5.0,75,0.00,,---,0.01,VWS V14.00,2013-01-28 03:15:00,
2013-01-27 22:18:00,40.1,32.5,30.25,West,259,3.0,5.0,74,0.00,,---,0.01,VWS V14.00,2013-01-28 03:18:00,
2013-01-27 22:21:00,40.0,32.4,30.25,SW,214,3.0,5.0,74,0.00,,---,0.01,VWS V14.00,2013-01-28 03:21:00,
2013-01-27 22:24:00,40.0,32.7,30.24,SW,219,3.0,5.0,75,0.00,,---,0.01,VWS V14.00,2013-01-28 03:24:00,
2013-01-27 22:27:00,40.0,32.7,30.24,SSE,167,3.0,5.0,75,0.00,,---,0.01,VWS V14.00,2013-01-28 03:27:00,
2013-01-27 22:30:00,40.0,32.7,30.23,SW,222,2.0,5.0,75,0.00,,---,0.01,VWS V14.00,2013-01-28 03:30:00,
2013-01-27 22:33:00,40.0,32.4,30.24,SW,217,4.0,6.0,74,0.00,,---,0.01,VWS V14.00,2013-01-28 03:33:00,
2013-01-27 22:36:00,40.0,32.7,30.24,SW,233,5.0,7.0,75,0.00,,---,0.01,VWS V14.00,2013-01-28 03:36:00,
2013-01-27 22:39:00,39.9,32.6,30.24,WSW,238,1.0,8.0,75,0.00,,---,0.01,VWS V14.00,2013-01-28 03:39:00,
2013-01-27 22:42:00,39.9,32.3,30.24,SW,217,5.0,8.0,74,0.00,,---,0.01,VWS V14.00,2013-01-28 03:42:00,
2013-01-27 22:45:00,39.9,32.6,30.25,South,174,1.0,8.0,75,0.00,,---,0.01,VWS V14.00,2013-01-28 03:45:00,
2013-01-27 22:48:00,39.9,32.6,30.25,South,186,3.0,8.0,75,0.00,,---,0.01,VWS V14.00,2013-01-28 03:48:00,
2013-01-27 22:51:00,39.9,32.3,30.25,WSW,255,3.0,9.0,74,0.00,,---,0.01,VWS V14.00,2013-01-28 03:51:00,
2013-01-27 22:54:00,39.9,32.3,30.25,South,186,2.0,9.0,74,0.00,,---,0.01,VWS V14.00,2013-01-28 03:54:00,
2013-01-27 22:57:00,39.9,32.3,30.25,SW,214,2.0,9.0,74,0.00,,---,0.01,VWS V14.00,2013-01-28 03:57:00,
2013-01-27 23:00:00,39.9,32.3,30.25,SSE,151,5.0,9.0,74,0.00,,---,0.01,VWS V14.00,2013-01-28 04:00:00,
2013-01-27 23:03:00,39.9,32.3,30.25,SSW,211,3.0,7.0,74,0.00,,---,0.01,VWS V14.00,2013-01-28 04:03:00,
2013-01-27 23:06:00,39.9,32.3,30.25,SSW,205,4.0,7.0,74,0.00,,---,0.01,VWS V14.00,2013-01-28 04:06:00,
2013-01-27 23:09:00,39.9,32.3,30.25,SSW,195,2.0,7.0,74,0.00,,---,0.01,VWS V14.00,2013-01-28 04:09:00,
2013-01-27 23:12:00,39.9,32.3,30.25,SW,216,1.0,7.0,74,0.00,,---,0.01,VWS V14.00,2013-01-28 04:12:00,
2013-01-27 23:15:00,39.9,32.3,30.25,SSW,199,1.0,7.0,74,0.00,,---,0.01,VWS V14.00,2013-01-28 04:15:00,
2013-01-27 23:18:00,39.8,32.2,30.25,SSE,166,4.0,7.0,74,0.00,,---,0.01,VWS V14.00,2013-01-28 04:18:00,
2013-01-27 23:21:00,39.8,32.2,30.25,South,191,3.0,7.0,74,0.00,,---,0.01,VWS V14.00,2013-01-28 04:21:00,
2013-01-27 23:24:00,39.7,32.1,30.25,WSW,237,2.0,7.0,74,0.00,,---,0.01,VWS V14.00,2013-01-28 04:24:00,
2013-01-27 23:27:00,39.7,31.8,30.25,South,190,3.0,7.0,73,0.00,,---,0.01,VWS V14.00,2013-01-28 04:27:00,
2013-01-27 23:30:00,39.7,31.8,30.24,SSW,203,2.0,7.0,73,0.00,,---,0.01,VWS V14.00,2013-01-28 04:30:00,
2013-01-27 23:33:00,39.7,31.8,30.25,SSW,212,2.0,5.0,73,0.00,,---,0.01,VWS V14.00,2013-01-28 04:33:00,
2013-01-27 23:39:00,39.6,31.7,30.25,SSW,200,2.0,6.0,73,0.00,,---,0.01,VWS V14.00,2013-01-28 04:39:00,
2013-01-27 23:42:00,39.7,32.1,30.25,SW,216,2.0,6.0,74,0.00,,---,0.01,VWS V14.00,2013-01-28 04:42:00,
2013-01-27 23:45:00,39.6,31.7,30.25,WSW,238,2.0,6.0,73,0.00,,---,0.01,VWS V14.00,2013-01-28 04:45:00,
2013-01-27 23:48:00,39.6,32.0,30.24,SSW,210,2.0,6.0,74,0.00,,---,0.01,VWS V14.00,2013-01-28 04:48:00,
2013-01-27 23:51:00,39.6,32.0,30.24,SSW,207,0.0,6.0,74,0.00,,---,0.01,VWS V14.00,2013-01-28 04:51:00,
2013-01-27 23:54:00,39.6,32.0,30.25,West,267,0.0,6.0,74,0.00,,---,0.01,VWS V14.00,2013-01-28 04:54:00,
2013-01-27 23:57:00,39.6,32.0,30.25,South,190,4.0,6.0,74,0.00,,---,0.01,VWS V14.00,2013-01-28 04:57:00,